Showing default

ICEYE-X31, 58288

Orbit data source: Space-Track

ICEYE-X31, 58288 is a payload satellite owned by ICEYE (FI) in SSO that was launched on Sat, 11 Nov 2023 UTC via an FALCON 9 launch vehicle from the Air Force Western Test Range (AFWTR). Payload-class satellites include a variety of spacecraft equipped with specific instruments for various scientific and technological missions. These include communications satellites like Starlink; space stations such as the ISS; scientific satellites like the Hubble; Earth observation satellites from companies like Planet Labs, Umbra, and HawkEye 360; GPS; miniature CubeSats for education and research; and military/defense satellites.

Loading next visibility...
Identifier
58288, 2023-174AJ
Orbit
SSO
Country
Flag of FIFI / FIN
Related business
Manufacturer
ICEYE
Mission
Operational Commercial Radar Imaging
Bus & Motor
ICEYE, Unknown motor
Mass
90 kg wet, 89 kg dry
Launch date (UTC)
2023-11-11 (3 years ago)
Launch vehicle
FALCON 9
Launch site
Air Force Western Test Range (AFWTR)
Object type
Payload
Rocket body
Debris
Shape & HBR
Box + 1 Pan, 2.4 m
Radar Cross Section
0.825 m², Medium (>0.1 m² and < 1m²)

Expand to show TLE details & history
Last TLE update: 22 hours ago

TLE from 22 hours ago
0 ICEYE-X31
1 58288U 23174AJ  26172.50616256  .00014176  00000-0  42733-3 0  9998
2 58288  97.3777 248.2459 0000885 313.2598  46.8571 15.34421401145410
Epoch: 2026-06-21T12:08Z
TLE epoch observation values (Epoch: 2026-06-21T12:08:52.445Z)
Latitude
-0.00001°
Longitude
156.32192°
Altitude
465.336 km
Speed
7.634 km/s
True Right ascension
16h 32m 59s
True Declination
0° 00' 00"
Sunlit
Object was in full shadow at epoch
Visualization orbit readout
Latitude
Unknown
Longitude
Unknown
Altitude
Unknown
Speed
Unknown
Apparent Right ascension
Unknown
Apparent Declination
Unknown
Sunlit
N/A
Visualization observer readout
Local Sidereal Time
21:38:58
Azimuth
Unknown
Elevation
Unknown
Doppler factor
Unknown
Orbital elements
Apogee altitude
460.19 km
Perigee altitude
458.98 km
Semi-major axis
6,837.722 km
Eccentricity
0.00009
Inclination
97.3777°
RAAN
248.2459°
Arg. of periapsis
313.2598°
True anomaly
46.8645°
Mean anomaly
46.8571°
Eccentric anomaly
46.8608°
Mean motion
3.83863 °/min
Orbital period
93.78 mins
BSTAR
0.00042733
Loading maneuver chart data...
Computing Atmospheric mass density...

Documentation

Showing up to 5 results
|